Hourly Data Report for June 20, 2021

FISHER BRANCH (AUT)
MANITOBA
Current Station Operator: ECCC - MSC

51°05'00.100" N
97°33'16.200" W
253.00 m
50309J6
71442
WSZ

Download Data

Hourly Data (June 2021)
Hourly Data Report for June 20, 2021
TIME
LST
Temp Definition
°C
Dew Point Definition
°C
Rel Hum Definition
%
Precip. Amount Definition
mm

Wind Dir Definition
10's deg

Wind Spd Definition
km/h
Visibility Definition
km
Stn Press Definition
kPa
Hmdx Definition


Wind Chill Definition


Weather Definition


00:00 14.2 12.2 88 0.8 21 7   97.35     LegendNANA
01:00 13.5 11.6 88 0.0 24 6   97.32     LegendNANA
02:00 13.1 11.9 92 0.0 27 7   97.34     LegendNANA
03:00 11.9 10.7 92 0.0 31 8   97.39     LegendNANA
04:00 10.7 9.6 93 0.0 31 7   97.43     LegendNANA
05:00 10.7 9.7 93 0.0 30 8   97.48     LegendNANA
06:00 12.8 10.5 86 0.0 34 16   97.52     LegendNANA
07:00 13.1 10.7 86 0.0 33 16   97.62     LegendNANA
08:00 12.7 8.7 77 0.0 33 23   97.73     LegendNANA
09:00 14.0 7.6 65 0.0 36 25   97.81     LegendNANA
10:00 15.3 5.2 51 0.0 36 24   97.84     LegendNANA
11:00 14.9 3.9 48 0.0 34 27   97.90     LegendNANA
12:00 14.7 2.9 45 0.0 35 23   97.93     LegendNANA
13:00 14.5 2.6 45 0.0 35 25   98.00     LegendNANA
14:00 15.0 2.8 44 0.0 34 25   98.05     LegendNANA
15:00 14.9 1.2 39 0.0 34 28   98.09     LegendNANA
16:00 15.6 -1.3 31 0.0 34 29   98.13     LegendNANA
17:00 14.3 -2.8 31 0.0 35 29   98.17     LegendNANA
18:00 14.4 -1.7 33 0.0 33 26   98.21     LegendNANA
19:00 12.5 0.6 44 0.0 34 20   98.28     LegendNANA
20:00 12.1 1.5 48 0.0 34 19   98.34     LegendNANA
21:00 9.5 2.7 62 0.0 34 11   98.38     LegendNANA
22:00 8.9 3.3 68 0.0 32 7   98.42     LegendNANA
23:00 7.1 2.9 75 0.0 32 9   98.43     LegendNANA

Notes on Data Quality.

Legend

  • E = Estimated
  • M = Missing
  • NA = Not Available*
  • [empty] = Indicates an unobserved value
Date modified: